User: anonymous   Login
Location: Unspecified
(0.0000°N, 0.0000°E)
Time: 19:11:46
(UTC+01:00)
Language:

NATO 3D Rocket - Orbit

View from above orbital plane
View from above orbital plane
View from above satellite
View from above satellite

Ground track
Ground track

The orbit data is extracted from the following two-line orbital elements,

1 15392U 84115B   16340.81688197  .00000233  00000-0  57981-4 0  9993
2 15392  21.4976 114.7313 1034605 244.3996 104.5987 12.45541440459885
Epoch (UTC): 05 December 2016 19:36:18
Eccentricity: 0.1034605
inclination: 21.4976°
perigee height: 670 km
apogee height: 2296 km
right ascension of ascending node: 114.7313°
argument of perigee: 244.3996°
revolutions per day: 12.45541440
mean anomaly at epoch: 104.5987°
orbit number at epoch: 45988

The dashed part of the orbit path shows where the satellite is in the earth's shadow,  

DLR